Year,Month,Day,Hour,Minute,Value (Times are PST for temperature in C)
2020,08,14,00,00,10.10
2020,08,14,00,01,10.10
2020,08,14,00,02,10.10
2020,08,14,00,03,10.10
2020,08,14,00,04,10.10
2020,08,14,00,05,10.10
2020,08,14,00,06,10.10
2020,08,14,00,07,10.10
2020,08,14,00,08,10.10
2020,08,14,00,09,10.10
2020,08,14,00,10,10.00
2020,08,14,00,11,10.00
2020,08,14,00,12,10.00
2020,08,14,00,13,10.00
2020,08,14,00,14,10.00
2020,08,14,00,15,9.90
2020,08,14,00,16,9.90
2020,08,14,00,17,9.90
2020,08,14,00,18,9.90
2020,08,14,00,19,9.90
2020,08,14,00,20,9.90
2020,08,14,00,21,9.90
2020,08,14,00,22,9.90
2020,08,14,00,23,9.90
2020,08,14,00,24,9.90
2020,08,14,00,25,9.90
2020,08,14,00,26,9.90
2020,08,14,00,27,9.90
2020,08,14,00,28,9.90
2020,08,14,00,29,9.90
2020,08,14,00,30,9.90
2020,08,14,00,31,9.90
2020,08,14,00,32,9.90
2020,08,14,00,33,9.90
2020,08,14,00,34,9.90
2020,08,14,00,35,9.90
2020,08,14,00,36,9.80
2020,08,14,00,37,9.80
2020,08,14,00,38,9.80
2020,08,14,00,39,9.80
2020,08,14,00,40,9.80
2020,08,14,00,41,9.80
2020,08,14,00,42,9.80
2020,08,14,00,43,9.70
2020,08,14,00,44,9.70
2020,08,14,00,45,9.70
2020,08,14,00,46,9.70
2020,08,14,00,47,9.70
2020,08,14,00,48,9.70
2020,08,14,00,49,9.60
2020,08,14,00,50,9.60
2020,08,14,00,51,9.60
2020,08,14,00,52,9.60
2020,08,14,00,53,9.60
2020,08,14,00,54,9.60
2020,08,14,00,55,9.60
2020,08,14,00,56,9.60
2020,08,14,00,57,9.60
2020,08,14,00,58,9.70
2020,08,14,00,59,9.70
2020,08,14,01,00,9.70
2020,08,14,01,01,9.70
2020,08,14,01,02,9.70
2020,08,14,01,03,9.70
2020,08,14,01,04,9.70
2020,08,14,01,05,9.70
2020,08,14,01,06,9.70
2020,08,14,01,07,9.70
2020,08,14,01,08,9.70
2020,08,14,01,09,9.60
2020,08,14,01,10,9.60
2020,08,14,01,11,9.60
2020,08,14,01,12,9.60
2020,08,14,01,13,9.60
2020,08,14,01,14,9.60
2020,08,14,01,15,9.60
2020,08,14,01,16,9.60
2020,08,14,01,17,9.60
2020,08,14,01,18,9.60
2020,08,14,01,19,9.60
2020,08,14,01,20,9.60
2020,08,14,01,21,9.70
2020,08,14,01,22,9.70
2020,08,14,01,23,9.70
2020,08,14,01,24,9.70
2020,08,14,01,25,9.70
2020,08,14,01,26,9.70
2020,08,14,01,27,9.70
2020,08,14,01,28,9.70
2020,08,14,01,29,9.70
2020,08,14,01,30,9.70
2020,08,14,01,31,9.70
2020,08,14,01,32,9.70
2020,08,14,01,33,9.70
2020,08,14,01,34,9.70
2020,08,14,01,35,9.70
2020,08,14,01,36,9.70
2020,08,14,01,37,9.70
2020,08,14,01,38,9.70
2020,08,14,01,39,9.70
2020,08,14,01,40,9.70
2020,08,14,01,41,9.70
2020,08,14,01,42,9.70
2020,08,14,01,43,9.70
2020,08,14,01,44,9.70
2020,08,14,01,45,9.70
2020,08,14,01,46,9.70
2020,08,14,01,47,9.70
2020,08,14,01,48,9.70
2020,08,14,01,49,9.70
2020,08,14,01,50,9.60
2020,08,14,01,51,9.60
2020,08,14,01,52,9.60
2020,08,14,01,53,9.60
2020,08,14,01,54,9.60
2020,08,14,01,55,9.60
2020,08,14,01,56,9.60
2020,08,14,01,57,9.60
2020,08,14,01,58,9.50
2020,08,14,01,59,9.50
2020,08,14,02,00,9.50
2020,08,14,02,01,9.50
2020,08,14,02,02,9.50
2020,08,14,02,03,9.60
2020,08,14,02,04,9.60
2020,08,14,02,05,9.60
2020,08,14,02,06,9.50
2020,08,14,02,07,9.50
2020,08,14,02,08,9.50
2020,08,14,02,09,9.50
2020,08,14,02,10,9.50
2020,08,14,02,11,9.50
2020,08,14,02,12,9.50
2020,08,14,02,13,9.50
2020,08,14,02,14,9.50
2020,08,14,02,15,9.50
2020,08,14,02,16,9.50
2020,08,14,02,17,9.50
2020,08,14,02,18,9.50
2020,08,14,02,19,9.50
2020,08,14,02,20,9.50
2020,08,14,02,21,9.50
2020,08,14,02,22,9.50
2020,08,14,02,23,9.50
2020,08,14,02,24,9.50
2020,08,14,02,25,9.50
2020,08,14,02,26,9.50
2020,08,14,02,27,9.50
2020,08,14,02,28,9.50
2020,08,14,02,29,9.50
2020,08,14,02,30,9.50
2020,08,14,02,31,9.50
2020,08,14,02,32,9.50
2020,08,14,02,33,9.50
2020,08,14,02,34,9.50
2020,08,14,02,35,9.50
2020,08,14,02,36,9.50
2020,08,14,02,37,9.50
2020,08,14,02,38,9.50
2020,08,14,02,39,9.50
2020,08,14,02,40,9.50
2020,08,14,02,41,9.50
2020,08,14,02,42,9.60
2020,08,14,02,43,9.60
2020,08,14,02,44,9.60
2020,08,14,02,45,9.60
2020,08,14,02,46,9.60
2020,08,14,02,47,9.60
2020,08,14,02,48,9.60
2020,08,14,02,49,9.50
2020,08,14,02,50,9.50
2020,08,14,02,51,9.50
2020,08,14,02,52,9.50
2020,08,14,02,53,9.50
2020,08,14,02,54,9.50
2020,08,14,02,55,9.50
2020,08,14,02,56,9.50
2020,08,14,02,57,9.50
2020,08,14,02,58,9.50
2020,08,14,02,59,9.50
2020,08,14,03,00,9.50
2020,08,14,03,01,9.50
2020,08,14,03,02,9.50
2020,08,14,03,03,9.40
2020,08,14,03,04,9.40
2020,08,14,03,05,9.40
2020,08,14,03,06,9.40
2020,08,14,03,07,9.40
2020,08,14,03,08,9.40
2020,08,14,03,09,9.40
2020,08,14,03,10,9.40
2020,08,14,03,11,9.40
2020,08,14,03,12,9.40
2020,08,14,03,13,9.40
2020,08,14,03,14,9.40
2020,08,14,03,15,9.40
2020,08,14,03,16,9.40
2020,08,14,03,17,9.40
2020,08,14,03,18,9.40
2020,08,14,03,19,9.40
2020,08,14,03,20,9.40
2020,08,14,03,21,9.40
2020,08,14,03,22,9.40
2020,08,14,03,23,9.40
2020,08,14,03,24,9.40
2020,08,14,03,25,9.30
2020,08,14,03,26,9.30
2020,08,14,03,27,9.30
2020,08,14,03,28,9.30
2020,08,14,03,29,9.30
2020,08,14,03,30,9.30
2020,08,14,03,31,9.30
2020,08,14,03,32,9.30
2020,08,14,03,33,9.30
2020,08,14,03,34,9.30
2020,08,14,03,35,9.30
2020,08,14,03,36,9.30
2020,08,14,03,37,9.30
2020,08,14,03,38,9.30
2020,08,14,03,39,9.30
2020,08,14,03,40,9.30
2020,08,14,03,41,9.40
2020,08,14,03,42,9.40
2020,08,14,03,43,9.40
2020,08,14,03,44,9.40
2020,08,14,03,45,9.40
2020,08,14,03,46,9.40
2020,08,14,03,47,9.40
2020,08,14,03,48,9.40
2020,08,14,03,49,9.40
2020,08,14,03,50,9.40
2020,08,14,03,51,9.40
2020,08,14,03,52,9.40
2020,08,14,03,53,9.40
2020,08,14,03,54,9.40
2020,08,14,03,55,9.40
2020,08,14,03,56,9.40
2020,08,14,03,57,9.40
2020,08,14,03,58,9.40
2020,08,14,03,59,9.40
2020,08,14,04,00,9.40
2020,08,14,04,01,9.40
2020,08,14,04,02,9.40
2020,08,14,04,03,9.40
2020,08,14,04,04,9.40
2020,08,14,04,05,9.30
2020,08,14,04,06,9.30
2020,08,14,04,07,9.30
2020,08,14,04,08,9.30
2020,08,14,04,09,9.30
2020,08,14,04,10,9.30
2020,08,14,04,11,9.30
2020,08,14,04,12,9.30
2020,08,14,04,13,9.30
2020,08,14,04,14,9.30
2020,08,14,04,15,9.30
2020,08,14,04,16,9.30
2020,08,14,04,17,9.30
2020,08,14,04,18,9.30
2020,08,14,04,19,9.30
2020,08,14,04,20,9.30
2020,08,14,04,21,9.30
2020,08,14,04,22,9.30
2020,08,14,04,23,9.30
2020,08,14,04,24,9.30
2020,08,14,04,25,9.30
2020,08,14,04,26,9.30
2020,08,14,04,27,9.30
2020,08,14,04,28,9.30
2020,08,14,04,29,9.30
2020,08,14,04,30,9.20
2020,08,14,04,31,9.20
2020,08,14,04,32,9.20
2020,08,14,04,33,9.20
2020,08,14,04,34,9.20
2020,08,14,04,35,9.20
2020,08,14,04,36,9.20
2020,08,14,04,37,9.20
2020,08,14,04,38,9.20
2020,08,14,04,39,9.20
2020,08,14,04,40,9.20
2020,08,14,04,41,9.20
2020,08,14,04,42,9.20
2020,08,14,04,43,9.20
2020,08,14,04,44,9.20
2020,08,14,04,45,9.20
2020,08,14,04,46,9.20
2020,08,14,04,47,9.20
2020,08,14,04,48,9.10
2020,08,14,04,49,9.10
2020,08,14,04,50,9.10
2020,08,14,04,51,9.10
2020,08,14,04,52,9.10
2020,08,14,04,53,9.10
2020,08,14,04,54,9.10
2020,08,14,04,55,9.10
2020,08,14,04,56,9.10
2020,08,14,04,57,9.10
2020,08,14,04,58,9.10
2020,08,14,04,59,9.10
2020,08,14,05,00,9.10
2020,08,14,05,01,9.10
2020,08,14,05,02,9.10
2020,08,14,05,03,9.10
2020,08,14,05,04,9.10
2020,08,14,05,05,9.10
2020,08,14,05,06,9.10
2020,08,14,05,07,9.00
2020,08,14,05,08,9.00
2020,08,14,05,09,9.00
2020,08,14,05,10,9.00
2020,08,14,05,11,9.00
2020,08,14,05,12,9.00
2020,08,14,05,13,9.00
2020,08,14,05,14,9.00
2020,08,14,05,15,9.00
2020,08,14,05,16,9.00
2020,08,14,05,17,9.00
2020,08,14,05,18,9.00
2020,08,14,05,19,9.00
2020,08,14,05,20,9.00
2020,08,14,05,21,9.00
2020,08,14,05,22,9.00
2020,08,14,05,23,9.00
2020,08,14,05,24,9.00
2020,08,14,05,25,9.00
2020,08,14,05,26,9.00
2020,08,14,05,27,9.10
2020,08,14,05,28,9.10
2020,08,14,05,29,9.10
2020,08,14,05,30,9.10
2020,08,14,05,31,9.10
2020,08,14,05,32,9.10
2020,08,14,05,33,9.10
2020,08,14,05,34,9.10
2020,08,14,05,35,9.10
2020,08,14,05,36,9.10
2020,08,14,05,37,9.10
2020,08,14,05,38,9.10
2020,08,14,05,39,9.10
2020,08,14,05,40,9.10
2020,08,14,05,41,9.10
2020,08,14,05,42,9.00
2020,08,14,05,43,9.00
2020,08,14,05,44,9.00
2020,08,14,05,45,9.00
2020,08,14,05,46,9.00
2020,08,14,05,47,9.00
2020,08,14,05,48,9.00
2020,08,14,05,49,9.00
2020,08,14,05,50,9.00
2020,08,14,05,51,9.00
2020,08,14,05,52,9.00
2020,08,14,05,53,9.00
2020,08,14,05,54,9.00
2020,08,14,05,55,9.00
2020,08,14,05,56,9.00
2020,08,14,05,57,9.00
2020,08,14,05,58,9.00
2020,08,14,05,59,8.90
2020,08,14,06,00,9.00
2020,08,14,06,01,9.00
2020,08,14,06,02,9.00
2020,08,14,06,03,9.00
2020,08,14,06,04,9.00
2020,08,14,06,05,9.00
2020,08,14,06,06,9.00
2020,08,14,06,07,9.00
2020,08,14,06,08,9.00
2020,08,14,06,09,9.00
2020,08,14,06,10,9.00
2020,08,14,06,11,9.00
2020,08,14,06,12,9.00
2020,08,14,06,13,9.10
2020,08,14,06,14,9.10
2020,08,14,06,15,9.10
2020,08,14,06,16,9.10
2020,08,14,06,17,9.10
2020,08,14,06,18,9.10
2020,08,14,06,19,9.10
2020,08,14,06,20,9.10
2020,08,14,06,21,9.10
2020,08,14,06,22,9.10
2020,08,14,06,23,9.10
2020,08,14,06,24,9.10
2020,08,14,06,25,9.10
2020,08,14,06,26,9.10
2020,08,14,06,27,9.10
2020,08,14,06,28,9.10
2020,08,14,06,29,9.10
2020,08,14,06,30,9.10
2020,08,14,06,31,9.10
2020,08,14,06,32,9.10
2020,08,14,06,33,9.10
2020,08,14,06,34,9.10
2020,08,14,06,35,9.10
2020,08,14,06,36,9.10
2020,08,14,06,37,9.10
2020,08,14,06,38,9.10
2020,08,14,06,39,9.10
2020,08,14,06,40,9.20
2020,08,14,06,41,9.20
2020,08,14,06,42,9.20
2020,08,14,06,43,9.20
2020,08,14,06,44,9.20
2020,08,14,06,45,9.20
2020,08,14,06,46,9.20
2020,08,14,06,47,9.20
2020,08,14,06,48,9.20
2020,08,14,06,49,9.20
2020,08,14,06,50,9.30
2020,08,14,06,51,9.30
2020,08,14,06,52,9.30
2020,08,14,06,53,9.30
2020,08,14,06,54,9.30
2020,08,14,06,55,9.30
2020,08,14,06,56,9.40
2020,08,14,06,57,9.40
2020,08,14,06,58,9.40
2020,08,14,06,59,9.50
2020,08,14,07,00,9.50
2020,08,14,07,01,9.50
2020,08,14,07,02,9.60
2020,08,14,07,03,9.60
2020,08,14,07,04,9.70
2020,08,14,07,05,9.70
2020,08,14,07,06,9.70
2020,08,14,07,07,9.80
2020,08,14,07,08,9.80
2020,08,14,07,09,9.80
2020,08,14,07,10,9.90
2020,08,14,07,11,9.90
2020,08,14,07,12,10.00
2020,08,14,07,13,10.00
2020,08,14,07,14,10.10
2020,08,14,07,15,10.20
2020,08,14,07,16,10.20
2020,08,14,07,17,10.30
2020,08,14,07,18,10.40
2020,08,14,07,19,10.50
2020,08,14,07,20,10.60
2020,08,14,07,21,10.70
2020,08,14,07,22,10.80
2020,08,14,07,23,10.90
2020,08,14,07,24,11.10
2020,08,14,07,25,11.20
2020,08,14,07,26,11.40
2020,08,14,07,27,11.60
2020,08,14,07,28,11.80
2020,08,14,07,29,11.90
2020,08,14,07,30,12.00
2020,08,14,07,31,12.20
2020,08,14,07,32,12.30
2020,08,14,07,33,12.40
2020,08,14,07,34,12.50
2020,08,14,07,35,12.60
2020,08,14,07,36,12.70
2020,08,14,07,37,12.80
2020,08,14,07,38,13.00
2020,08,14,07,39,13.10
2020,08,14,07,40,13.20
2020,08,14,07,41,13.40
2020,08,14,07,42,13.50
2020,08,14,07,43,13.60
2020,08,14,07,44,13.80
2020,08,14,07,45,13.90
2020,08,14,07,46,14.00
2020,08,14,07,47,14.20
2020,08,14,07,48,14.30
2020,08,14,07,49,14.50
2020,08,14,07,50,14.60
2020,08,14,07,51,14.80
2020,08,14,07,52,14.90
2020,08,14,07,53,15.10
2020,08,14,07,54,15.20
2020,08,14,07,55,15.30
2020,08,14,07,56,15.40
2020,08,14,07,57,15.50
2020,08,14,07,58,15.60
2020,08,14,07,59,15.70
2020,08,14,08,00,15.80
2020,08,14,08,01,15.90
2020,08,14,08,02,16.00
2020,08,14,08,03,16.10
2020,08,14,08,04,16.00
2020,08,14,08,05,16.10
2020,08,14,08,06,16.10
2020,08,14,08,07,16.20
2020,08,14,08,08,16.30
2020,08,14,08,09,16.30
2020,08,14,08,10,16.50
2020,08,14,08,11,16.50
2020,08,14,08,12,16.60
2020,08,14,08,13,16.60
2020,08,14,08,14,16.70
2020,08,14,08,15,16.80
2020,08,14,08,16,16.90
2020,08,14,08,17,17.00
2020,08,14,08,18,17.10
2020,08,14,08,19,17.10
2020,08,14,08,20,17.20
2020,08,14,08,21,17.30
2020,08,14,08,22,17.30
2020,08,14,08,23,17.40
2020,08,14,08,24,17.40
2020,08,14,08,25,17.50
2020,08,14,08,26,17.60
2020,08,14,08,27,17.60
2020,08,14,08,28,17.70
2020,08,14,08,29,17.80
2020,08,14,08,30,17.80
2020,08,14,08,31,17.90
2020,08,14,08,32,17.90
2020,08,14,08,33,18.00
2020,08,14,08,34,18.10
2020,08,14,08,35,18.10
2020,08,14,08,36,18.10
2020,08,14,08,37,18.10
2020,08,14,08,38,18.10
2020,08,14,08,39,18.10
2020,08,14,08,40,18.10
2020,08,14,08,41,18.20
2020,08,14,08,42,18.20
2020,08,14,08,43,18.20
2020,08,14,08,44,18.30
2020,08,14,08,45,18.40
2020,08,14,08,46,18.40
2020,08,14,08,47,18.50
2020,08,14,08,48,18.60
2020,08,14,08,49,18.60
2020,08,14,08,50,18.70
2020,08,14,08,51,18.70
2020,08,14,08,52,18.70
2020,08,14,08,53,18.70
2020,08,14,08,54,18.80
2020,08,14,08,55,18.80
2020,08,14,08,56,18.90
2020,08,14,08,57,19.00
2020,08,14,08,58,19.00
2020,08,14,08,59,19.10
2020,08,14,09,00,19.10
2020,08,14,09,01,19.20
2020,08,14,09,02,19.20
2020,08,14,09,03,19.30
2020,08,14,09,04,19.30
2020,08,14,09,05,19.40
2020,08,14,09,06,19.40
2020,08,14,09,07,19.40
2020,08,14,09,08,19.50
2020,08,14,09,09,19.50
2020,08,14,09,10,19.50
2020,08,14,09,11,19.60
2020,08,14,09,12,19.60
2020,08,14,09,13,19.70
2020,08,14,09,14,19.70
2020,08,14,09,15,19.80
2020,08,14,09,16,19.80
2020,08,14,09,17,19.90
2020,08,14,09,18,19.90
2020,08,14,09,19,19.90
2020,08,14,09,20,19.90
2020,08,14,09,21,19.90
2020,08,14,09,22,20.00
2020,08,14,09,23,20.00
2020,08,14,09,24,20.00
2020,08,14,09,25,20.00
2020,08,14,09,26,20.00
2020,08,14,09,27,20.00
2020,08,14,09,28,20.00
2020,08,14,09,29,20.00
2020,08,14,09,30,20.00
2020,08,14,09,31,20.10
2020,08,14,09,32,20.10
2020,08,14,09,33,20.20
2020,08,14,09,34,20.20
2020,08,14,09,35,20.20
2020,08,14,09,36,20.30
2020,08,14,09,37,20.30
2020,08,14,09,38,20.30
2020,08,14,09,39,20.40
2020,08,14,09,40,20.40
2020,08,14,09,41,20.50
2020,08,14,09,42,20.60
2020,08,14,09,43,20.60
2020,08,14,09,44,20.60
2020,08,14,09,45,20.60
2020,08,14,09,46,20.70
2020,08,14,09,47,20.70
2020,08,14,09,48,20.70
2020,08,14,09,49,20.70
2020,08,14,09,50,20.80
2020,08,14,09,51,20.80
2020,08,14,09,52,20.80
2020,08,14,09,53,20.80
2020,08,14,09,54,20.80
2020,08,14,09,55,20.80
2020,08,14,09,56,20.80
2020,08,14,09,57,20.80
2020,08,14,09,58,20.70
2020,08,14,09,59,20.70
2020,08,14,10,00,20.70
2020,08,14,10,01,20.70
2020,08,14,10,02,20.70
2020,08,14,10,03,20.70
2020,08,14,10,04,20.60
2020,08,14,10,05,20.60
2020,08,14,10,06,20.60
2020,08,14,10,07,20.50
2020,08,14,10,08,20.50
2020,08,14,10,09,20.50
2020,08,14,10,10,20.50
2020,08,14,10,11,20.50
2020,08,14,10,12,20.50
2020,08,14,10,13,20.50
2020,08,14,10,14,20.50
2020,08,14,10,15,20.50
2020,08,14,10,16,20.50
2020,08,14,10,17,20.50
2020,08,14,10,18,20.50
2020,08,14,10,19,20.60
2020,08,14,10,20,20.60
2020,08,14,10,21,20.60
2020,08,14,10,22,20.60
2020,08,14,10,23,20.60
2020,08,14,10,24,20.60
2020,08,14,10,25,20.60
2020,08,14,10,26,20.60
2020,08,14,10,27,20.60
2020,08,14,10,28,20.70
2020,08,14,10,29,20.70
2020,08,14,10,30,20.70
2020,08,14,10,31,20.70
2020,08,14,10,32,20.70
2020,08,14,10,33,20.70
2020,08,14,10,34,20.70
2020,08,14,10,35,20.60
2020,08,14,10,36,20.60
2020,08,14,10,37,20.60
2020,08,14,10,38,20.60
2020,08,14,10,39,20.70
2020,08,14,10,40,20.70
2020,08,14,10,41,20.80
2020,08,14,10,42,20.80
2020,08,14,10,43,20.80
2020,08,14,10,44,20.90
2020,08,14,10,45,20.90
2020,08,14,10,46,20.90
2020,08,14,10,47,20.90
2020,08,14,10,48,20.90
2020,08,14,10,49,20.90
2020,08,14,10,50,20.90
2020,08,14,10,51,20.90
2020,08,14,10,52,20.80
2020,08,14,10,53,20.80
2020,08,14,10,54,20.70
2020,08,14,10,55,20.70
2020,08,14,10,56,20.70
2020,08,14,10,57,20.70
2020,08,14,10,58,20.70
2020,08,14,10,59,20.70
2020,08,14,11,00,20.70
2020,08,14,11,01,20.70
2020,08,14,11,02,20.70
2020,08,14,11,03,20.70
2020,08,14,11,04,20.70
2020,08,14,11,05,20.70
2020,08,14,11,06,20.70
2020,08,14,11,07,20.70
2020,08,14,11,08,20.70
2020,08,14,11,09,20.70
2020,08,14,11,10,20.70
2020,08,14,11,11,20.80
2020,08,14,11,12,20.70
2020,08,14,11,13,20.60
2020,08,14,11,14,20.60
2020,08,14,11,15,20.60
2020,08,14,11,16,20.60
2020,08,14,11,17,20.60
2020,08,14,11,18,20.60
2020,08,14,11,19,20.60
2020,08,14,11,20,20.60
2020,08,14,11,21,20.60
2020,08,14,11,22,20.50
2020,08,14,11,23,20.40
2020,08,14,11,24,20.40
2020,08,14,11,25,20.40
2020,08,14,11,26,20.40
2020,08,14,11,27,20.40
2020,08,14,11,28,20.50
2020,08,14,11,29,20.60
2020,08,14,11,30,20.60
2020,08,14,11,31,20.70
2020,08,14,11,32,20.80
2020,08,14,11,33,20.80
2020,08,14,11,34,20.90
2020,08,14,11,35,20.90
2020,08,14,11,36,21.00
2020,08,14,11,37,21.00
2020,08,14,11,38,21.00
2020,08,14,11,39,21.10
2020,08,14,11,40,21.10
2020,08,14,11,41,21.00
2020,08,14,11,42,21.00
2020,08,14,11,43,20.90
2020,08,14,11,44,20.90
2020,08,14,11,45,20.90
2020,08,14,11,46,21.00
2020,08,14,11,47,21.00
2020,08,14,11,48,21.10
2020,08,14,11,49,21.10
2020,08,14,11,50,21.10
2020,08,14,11,51,21.10
2020,08,14,11,52,21.10
2020,08,14,11,53,21.10
2020,08,14,11,54,21.20
2020,08,14,11,55,21.20
2020,08,14,11,56,21.30
2020,08,14,11,57,21.30
2020,08,14,11,58,21.30
2020,08,14,11,59,21.30
2020,08,14,12,00,21.40
2020,08,14,12,01,21.40
2020,08,14,12,02,21.40
2020,08,14,12,03,21.40
2020,08,14,12,04,21.40
2020,08,14,12,05,21.30
2020,08,14,12,06,21.30
2020,08,14,12,07,21.20
2020,08,14,12,08,21.10
2020,08,14,12,09,21.00
2020,08,14,12,10,20.90
2020,08,14,12,11,20.90
2020,08,14,12,12,20.90
2020,08,14,12,13,20.90
2020,08,14,12,14,20.80
2020,08,14,12,15,20.80
2020,08,14,12,16,20.80
2020,08,14,12,17,20.70
2020,08,14,12,18,20.70
2020,08,14,12,19,20.70
2020,08,14,12,20,20.70
2020,08,14,12,21,20.80
2020,08,14,12,22,20.80
2020,08,14,12,23,20.80
2020,08,14,12,24,20.80
2020,08,14,12,25,20.80
2020,08,14,12,26,20.90
2020,08,14,12,27,20.90
2020,08,14,12,28,20.90
2020,08,14,12,29,20.90
2020,08,14,12,30,20.90
2020,08,14,12,31,20.90
2020,08,14,12,32,20.90
2020,08,14,12,33,20.90
2020,08,14,12,34,21.00
2020,08,14,12,35,21.00
2020,08,14,12,36,21.00
2020,08,14,12,37,21.00
2020,08,14,12,38,21.10
2020,08,14,12,39,21.00
2020,08,14,12,40,21.00
2020,08,14,12,41,21.00
2020,08,14,12,42,21.00
2020,08,14,12,43,20.90
2020,08,14,12,44,20.90
2020,08,14,12,45,20.80
2020,08,14,12,46,20.80
2020,08,14,12,47,20.70
2020,08,14,12,48,20.70
2020,08,14,12,49,20.70
2020,08,14,12,50,20.60
2020,08,14,12,51,20.60
2020,08,14,12,52,20.60
2020,08,14,12,53,20.50
2020,08,14,12,54,20.50
2020,08,14,12,55,20.50
2020,08,14,12,56,20.40
2020,08,14,12,57,20.40
2020,08,14,12,58,20.40
2020,08,14,12,59,20.40
2020,08,14,13,00,20.40
2020,08,14,13,01,20.40
2020,08,14,13,02,20.50
2020,08,14,13,03,20.60
2020,08,14,13,04,20.60
2020,08,14,13,05,20.70
2020,08,14,13,06,20.70
2020,08,14,13,07,20.70
2020,08,14,13,08,20.60
2020,08,14,13,09,20.70
2020,08,14,13,10,20.70
2020,08,14,13,11,20.70
2020,08,14,13,12,20.70
2020,08,14,13,13,20.70
2020,08,14,13,14,20.70
2020,08,14,13,15,20.70
2020,08,14,13,16,20.70
2020,08,14,13,17,20.70
2020,08,14,13,18,20.60
2020,08,14,13,19,20.60
2020,08,14,13,20,20.60
2020,08,14,13,21,20.60
2020,08,14,13,22,20.60
2020,08,14,13,23,20.60
2020,08,14,13,24,20.60
2020,08,14,13,25,20.60
2020,08,14,13,26,20.60
2020,08,14,13,27,20.60
2020,08,14,13,28,20.60
2020,08,14,13,29,20.70
2020,08,14,13,30,20.70
2020,08,14,13,31,20.70
2020,08,14,13,32,20.80
2020,08,14,13,33,20.80
2020,08,14,13,34,20.80
2020,08,14,13,35,20.90
2020,08,14,13,36,20.90
2020,08,14,13,37,21.00
2020,08,14,13,38,21.00
2020,08,14,13,39,21.00
2020,08,14,13,40,21.10
2020,08,14,13,41,21.10
2020,08,14,13,42,21.10
2020,08,14,13,43,21.20
2020,08,14,13,44,21.20
2020,08,14,13,45,21.30
2020,08,14,13,46,21.30
2020,08,14,13,47,21.30
2020,08,14,13,48,21.40
2020,08,14,13,49,21.40
2020,08,14,13,50,21.40
2020,08,14,13,51,21.40
2020,08,14,13,52,21.40
2020,08,14,13,53,21.50
2020,08,14,13,54,21.50
2020,08,14,13,55,21.60
2020,08,14,13,56,21.60
2020,08,14,13,57,21.60
2020,08,14,13,58,21.70
2020,08,14,13,59,21.70
2020,08,14,14,00,21.70
2020,08,14,14,01,21.70
2020,08,14,14,02,21.70
2020,08,14,14,03,21.70
2020,08,14,14,04,21.70
2020,08,14,14,05,21.70
2020,08,14,14,06,21.80
2020,08,14,14,07,21.80
2020,08,14,14,08,21.80
2020,08,14,14,09,21.80
2020,08,14,14,10,21.80
2020,08,14,14,11,21.80
2020,08,14,14,12,21.80
2020,08,14,14,13,21.80
2020,08,14,14,14,21.80
2020,08,14,14,15,21.80
2020,08,14,14,16,21.80
2020,08,14,14,17,21.80
2020,08,14,14,18,21.80
2020,08,14,14,19,21.80
2020,08,14,14,20,21.80
2020,08,14,14,21,21.70
2020,08,14,14,22,21.70
2020,08,14,14,23,21.70
2020,08,14,14,24,21.70
2020,08,14,14,25,21.70
2020,08,14,14,26,21.60
2020,08,14,14,27,21.60
2020,08,14,14,28,21.60
2020,08,14,14,29,21.60
2020,08,14,14,30,21.60
2020,08,14,14,31,21.60
2020,08,14,14,32,21.60
2020,08,14,14,33,21.60
2020,08,14,14,34,21.60
2020,08,14,14,35,21.60
2020,08,14,14,36,21.60
2020,08,14,14,37,21.60
2020,08,14,14,38,21.60
2020,08,14,14,39,21.60
2020,08,14,14,40,21.60
2020,08,14,14,41,21.70
2020,08,14,14,42,21.70
2020,08,14,14,43,21.70
2020,08,14,14,44,21.70
2020,08,14,14,45,21.80
2020,08,14,14,46,21.80
2020,08,14,14,47,21.80
2020,08,14,14,48,21.90
2020,08,14,14,49,21.90
2020,08,14,14,50,22.00
2020,08,14,14,51,22.00
2020,08,14,14,52,22.10
2020,08,14,14,53,22.10
2020,08,14,14,54,22.20
2020,08,14,14,55,22.20
2020,08,14,14,56,22.30
2020,08,14,14,57,22.30
2020,08,14,14,58,22.30
2020,08,14,14,59,22.40
2020,08,14,15,00,22.40
2020,08,14,15,01,22.50
2020,08,14,15,02,22.50
2020,08,14,15,03,22.50
2020,08,14,15,04,22.60
2020,08,14,15,05,22.60
2020,08,14,15,06,22.60
2020,08,14,15,07,22.60
2020,08,14,15,08,22.60
2020,08,14,15,09,22.60
2020,08,14,15,10,22.60
2020,08,14,15,11,22.60
2020,08,14,15,12,22.60
2020,08,14,15,13,22.60
2020,08,14,15,14,22.60
2020,08,14,15,15,22.60
2020,08,14,15,16,22.60
2020,08,14,15,17,22.60
2020,08,14,15,18,22.60
2020,08,14,15,19,22.60
2020,08,14,15,20,22.60
2020,08,14,15,21,22.60
2020,08,14,15,22,22.60
2020,08,14,15,23,22.60
2020,08,14,15,24,22.60
2020,08,14,15,25,22.60
2020,08,14,15,26,22.60
2020,08,14,15,27,22.60
2020,08,14,15,28,22.60
2020,08,14,15,29,22.60
2020,08,14,15,30,22.60
2020,08,14,15,31,22.60
2020,08,14,15,32,22.60
2020,08,14,15,33,22.70
2020,08,14,15,34,22.70
2020,08,14,15,35,22.70
2020,08,14,15,36,22.70
2020,08,14,15,37,22.80
2020,08,14,15,38,22.80
2020,08,14,15,39,22.80
2020,08,14,15,40,22.80
2020,08,14,15,41,22.80
2020,08,14,15,42,22.80
2020,08,14,15,43,22.70
2020,08,14,15,44,22.70
2020,08,14,15,45,22.70
2020,08,14,15,46,22.70
2020,08,14,15,47,22.70
2020,08,14,15,48,22.70
2020,08,14,15,49,22.70
2020,08,14,15,50,22.70
2020,08,14,15,51,22.70
2020,08,14,15,52,22.70
2020,08,14,15,53,22.70
2020,08,14,15,54,22.70
2020,08,14,15,55,22.80
2020,08,14,15,56,22.80
2020,08,14,15,57,22.80
2020,08,14,15,58,22.80
2020,08,14,15,59,22.80
2020,08,14,16,00,22.80
2020,08,14,16,01,22.80
2020,08,14,16,02,22.80
2020,08,14,16,03,22.80
2020,08,14,16,04,22.80
2020,08,14,16,05,22.90
2020,08,14,16,06,22.90
2020,08,14,16,07,22.90
2020,08,14,16,08,23.00
2020,08,14,16,09,23.00
2020,08,14,16,10,23.10
2020,08,14,16,11,23.10
2020,08,14,16,12,23.10
2020,08,14,16,13,23.20
2020,08,14,16,14,23.20
2020,08,14,16,15,23.20
2020,08,14,16,16,23.20
2020,08,14,16,17,23.20
2020,08,14,16,18,23.30
2020,08,14,16,19,23.30
2020,08,14,16,20,23.30
2020,08,14,16,21,23.30
2020,08,14,16,22,23.30
2020,08,14,16,23,23.30
2020,08,14,16,24,23.30
2020,08,14,16,25,23.30
2020,08,14,16,26,23.30
2020,08,14,16,27,23.30
2020,08,14,16,28,23.30
2020,08,14,16,29,23.30
2020,08,14,16,30,23.40
2020,08,14,16,31,23.40
2020,08,14,16,32,23.40
2020,08,14,16,33,23.40
2020,08,14,16,34,23.40
2020,08,14,16,35,23.40
2020,08,14,16,36,23.40
2020,08,14,16,37,23.40
2020,08,14,16,38,23.40
2020,08,14,16,39,23.40
2020,08,14,16,40,23.40
2020,08,14,16,41,23.30
2020,08,14,16,42,23.30
2020,08,14,16,43,23.30
2020,08,14,16,44,23.30
2020,08,14,16,45,23.20
2020,08,14,16,46,23.20
2020,08,14,16,47,23.20
2020,08,14,16,48,23.10
2020,08,14,16,49,23.10
2020,08,14,16,50,23.10
2020,08,14,16,51,23.10
2020,08,14,16,52,23.00
2020,08,14,16,53,23.00
2020,08,14,16,54,23.00
2020,08,14,16,55,22.90
2020,08,14,16,56,22.90
2020,08,14,16,57,22.90
2020,08,14,16,58,22.90
2020,08,14,16,59,22.90
2020,08,14,17,00,22.90
2020,08,14,17,01,22.80
2020,08,14,17,02,22.80
2020,08,14,17,03,22.80
2020,08,14,17,04,22.70
2020,08,14,17,05,22.70
2020,08,14,17,06,22.70
2020,08,14,17,07,22.60
2020,08,14,17,08,22.60
2020,08,14,17,09,22.60
2020,08,14,17,10,22.60
2020,08,14,17,11,22.60
2020,08,14,17,12,22.60
2020,08,14,17,13,22.60
2020,08,14,17,14,22.50
2020,08,14,17,15,22.50
2020,08,14,17,16,22.50
2020,08,14,17,17,22.50
2020,08,14,17,18,22.50
2020,08,14,17,19,22.50
2020,08,14,17,20,22.50
2020,08,14,17,21,22.50
2020,08,14,17,22,22.40
2020,08,14,17,23,22.40
2020,08,14,17,24,22.40
2020,08,14,17,25,22.40
2020,08,14,17,26,22.40
2020,08,14,17,27,22.30
2020,08,14,17,28,22.40
2020,08,14,17,29,22.30
2020,08,14,17,30,22.30
2020,08,14,17,31,22.40
2020,08,14,17,32,22.40
2020,08,14,17,33,22.40
2020,08,14,17,34,22.40
2020,08,14,17,35,22.40
2020,08,14,17,36,22.40
2020,08,14,17,37,22.40